DAL1147 KATL-KORD

Flight info

Callsign DAL1147
Flight time N/A
Altitude 31000
Route VARNM2 GLAZR Q118 VOSTK/N0456F320 Q118 HEVAN BONNT VEECK5
Aircraft A321/M-SDE3FGHIRWY/LB1

Departure

Time 2026-05-05 19:46
Airport Hartsfield Jackson Atlanta International Airport (KATL)

Arrival

Time N/A
Airport Chicago O'Hare International Airport (KORD)
Time Latitude Longitude Altitude Speed Heading
2026-05-05 19:13 33.63842 -84.43862 1007 ft 0 kts 270°
2026-05-05 19:31 33.63842 -84.43843 1006 ft 4 kts 270°
2026-05-05 19:32 33.63842 -84.43811 1006 ft 4 kts 270°
2026-05-05 19:32 33.63842 -84.43786 1006 ft 0 kts 270°
2026-05-05 19:35 33.63847 -84.43790 1006 ft 1 kts 320°
2026-05-05 19:35 33.63857 -84.43791 1006 ft 4 kts 352°
2026-05-05 19:35 33.63911 -84.43782 1006 ft 9 kts 11°
2026-05-05 19:36 33.63971 -84.43768 1006 ft 10 kts 11°
2026-05-05 19:36 33.64050 -84.43750 1006 ft 15 kts 11°
2026-05-05 19:36 33.64161 -84.43725 1006 ft 16 kts
2026-05-05 19:36 33.64249 -84.43722 1006 ft 12 kts 360°
2026-05-05 19:37 33.64327 -84.43722 1006 ft 11 kts 360°
2026-05-05 19:37 33.64399 -84.43722 1006 ft 11 kts
2026-05-05 19:37 33.64455 -84.43683 1006 ft 9 kts 65°
2026-05-05 19:37 33.64459 -84.43594 1006 ft 11 kts 90°
2026-05-05 19:38 33.64459 -84.43499 1006 ft 13 kts 90°
2026-05-05 19:38 33.64459 -84.43363 1006 ft 20 kts 89°
2026-05-05 19:38 33.64459 -84.43185 1007 ft 21 kts 90°
2026-05-05 19:38 33.64459 -84.43016 1007 ft 20 kts 90°
2026-05-05 19:39 33.64459 -84.42850 1006 ft 17 kts 90°
2026-05-05 19:39 33.64465 -84.42714 1006 ft 16 kts 86°
2026-05-05 19:39 33.64469 -84.42561 1006 ft 20 kts 90°
2026-05-05 19:39 33.64468 -84.42397 1006 ft 19 kts 90°
2026-05-05 19:40 33.64470 -84.42280 1006 ft 9 kts 83°
2026-05-05 19:40 33.64494 -84.42212 1006 ft 8 kts 60°
2026-05-05 19:40 33.64524 -84.42149 1006 ft 10 kts 60°
2026-05-05 19:40 33.64542 -84.42079 1006 ft 9 kts 87°
2026-05-05 19:41 33.64542 -84.41992 1006 ft 14 kts 90°
2026-05-05 19:41 33.64542 -84.41874 1006 ft 14 kts 90°
2026-05-05 19:41 33.64542 -84.41768 1006 ft 11 kts 90°
2026-05-05 19:41 33.64542 -84.41684 1007 ft 12 kts 90°
2026-05-05 19:42 33.64542 -84.41573 1007 ft 15 kts 90°
2026-05-05 19:42 33.64541 -84.41416 1007 ft 20 kts 90°
2026-05-05 19:42 33.64541 -84.41253 1007 ft 19 kts 90°
2026-05-05 19:42 33.64542 -84.41096 1007 ft 19 kts 90°
2026-05-05 19:43 33.64542 -84.40944 1006 ft 18 kts 90°
2026-05-05 19:43 33.64545 -84.40830 1006 ft 11 kts 76°
2026-05-05 19:43 33.64569 -84.40746 1006 ft 10 kts 85°
2026-05-05 19:43 33.64569 -84.40662 1006 ft 10 kts 90°
2026-05-05 19:44 33.64575 -84.40587 1005 ft 9 kts 65°
2026-05-05 19:44 33.64626 -84.40569 1004 ft 8 kts
2026-05-05 19:44 33.64677 -84.40587 1004 ft 7 kts 305°
2026-05-05 19:44 33.64679 -84.40615 1004 ft 1 kts 272°
2026-05-05 19:45 33.64680 -84.40707 1004 ft 35 kts 270°
2026-05-05 19:45 33.64679 -84.41299 1009 ft 103 kts 270°
2026-05-05 19:45 33.64679 -84.42386 1006 ft 155 kts 270°
2026-05-05 19:45 33.64678 -84.43830 1135 ft 183 kts 265°
2026-05-05 19:46 33.64689 -84.45306 1936 ft 176 kts 265°
2026-05-05 19:46 33.65021 -84.46749 2590 ft 185 kts 290°
2026-05-05 19:46 33.65569 -84.48220 2963 ft 201 kts 289°
2026-05-05 19:46 33.66146 -84.49794 3289 ft 211 kts 289°
2026-05-05 19:47 33.66757 -84.51469 3535 ft 228 kts 290°
2026-05-05 19:47 33.67426 -84.53267 3695 ft 252 kts 290°
2026-05-05 19:47 33.68040 -84.55089 4063 ft 270 kts 289°
2026-05-05 19:47 33.68960 -84.57086 4796 ft 281 kts 310°
2026-05-05 19:48 33.70620 -84.58338 5570 ft 290 kts 344°
2026-05-05 19:48 33.72647 -84.58414 6328 ft 297 kts
2026-05-05 19:48 33.74706 -84.58123 7080 ft 299 kts
2026-05-05 19:48 33.76783 -84.58002 7906 ft 299 kts 358°
2026-05-05 19:49 33.78863 -84.57977 8730 ft 299 kts 356°
2026-05-05 19:49 33.80940 -84.57986 9573 ft 299 kts 355°
2026-05-05 19:49 33.82996 -84.58013 10280 ft 303 kts 354°
2026-05-05 19:49 33.85183 -84.58066 10447 ft 326 kts 354°
2026-05-05 19:50 33.87512 -84.58148 10750 ft 341 kts 354°
2026-05-05 19:50 33.89912 -84.58242 11330 ft 347 kts 354°
2026-05-05 19:50 33.92334 -84.58334 12036 ft 350 kts 354°
2026-05-05 19:50 33.94776 -84.58419 12769 ft 352 kts 354°
2026-05-05 19:51 33.97238 -84.58494 13462 ft 356 kts 354°
2026-05-05 19:51 33.99722 -84.58566 14111 ft 358 kts 354°
2026-05-05 19:51 34.02220 -84.58637 14752 ft 360 kts 354°
2026-05-05 19:51 34.04730 -84.58709 15409 ft 361 kts 354°
2026-05-05 19:52 34.07244 -84.58783 16078 ft 362 kts 353°
2026-05-05 19:52 34.09769 -84.58860 16738 ft 364 kts 353°
2026-05-05 19:52 34.12303 -84.58940 17382 ft 365 kts 353°
2026-05-05 19:52 34.14815 -84.59016 18039 ft 366 kts 353°
2026-05-05 19:53 34.17364 -84.59092 18616 ft 368 kts 353°
2026-05-05 19:53 34.19932 -84.59169 19117 ft 370 kts 353°
2026-05-05 19:53 34.22512 -84.59248 19620 ft 372 kts 352°
2026-05-05 19:53 34.25113 -84.59325 20107 ft 375 kts 352°
2026-05-05 19:54 34.27732 -84.59404 20583 ft 378 kts 352°
2026-05-05 19:54 34.30362 -84.59519 21061 ft 379 kts 351°
2026-05-05 19:54 34.33000 -84.59717 21521 ft 381 kts 350°
2026-05-05 19:54 34.35655 -84.59963 21986 ft 383 kts 349°
2026-05-05 19:55 34.38323 -84.60225 22460 ft 386 kts 349°
2026-05-05 19:55 34.40976 -84.60483 22912 ft 389 kts 349°
2026-05-05 19:55 34.43686 -84.60737 23360 ft 392 kts 349°
2026-05-05 19:55 34.46417 -84.60980 23738 ft 395 kts 350°
2026-05-05 19:56 34.49162 -84.61216 24116 ft 397 kts 350°
2026-05-05 19:56 34.51921 -84.61445 24506 ft 398 kts 350°
2026-05-05 19:56 34.54686 -84.61672 24898 ft 399 kts 350°
2026-05-05 19:56 34.57464 -84.61901 25293 ft 401 kts 350°
2026-05-05 19:57 34.60250 -84.62135 25680 ft 402 kts 349°
2026-05-05 19:57 34.63044 -84.62371 26055 ft 404 kts 350°
2026-05-05 19:57 34.65863 -84.62612 26365 ft 407 kts 350°
2026-05-05 19:57 34.68659 -84.62853 26707 ft 409 kts 350°
2026-05-05 19:58 34.71508 -84.63100 27064 ft 411 kts 349°
2026-05-05 19:58 34.74365 -84.63349 27417 ft 413 kts 349°
2026-05-05 19:58 34.77235 -84.63595 27662 ft 414 kts 349°
2026-05-05 19:58 34.80121 -84.63845 27956 ft 417 kts 349°
2026-05-05 19:59 34.83018 -84.64094 28306 ft 418 kts 349°
2026-05-05 19:59 34.85923 -84.64340 28589 ft 420 kts 349°
2026-05-05 19:59 34.88851 -84.64588 28932 ft 422 kts 349°
2026-05-05 19:59 34.91796 -84.64839 29182 ft 426 kts 349°
2026-05-05 20:00 34.94758 -84.65092 29493 ft 427 kts 349°
2026-05-05 20:00 34.97687 -84.65347 29779 ft 429 kts 349°
2026-05-05 20:00 35.00675 -84.65608 30048 ft 432 kts 349°
2026-05-05 20:00 35.03675 -84.65871 30312 ft 433 kts 349°
2026-05-05 20:01 35.06677 -84.66133 30605 ft 433 kts 349°
2026-05-05 20:01 35.09688 -84.66392 30886 ft 434 kts 349°
2026-05-05 20:01 35.12700 -84.66648 30976 ft 436 kts 349°
2026-05-05 20:02 35.18852 -84.67188 30981 ft 449 kts 349°
2026-05-05 20:02 35.25106 -84.67730 30979 ft 451 kts 349°
2026-05-05 20:03 35.31328 -84.68264 31002 ft 451 kts 349°
2026-05-05 20:03 35.37593 -84.68806 31006 ft 451 kts 349°
2026-05-05 20:04 35.43853 -84.69353 31025 ft 451 kts 348°
2026-05-05 20:04 35.50111 -84.69897 31018 ft 451 kts 348°